Regional Weather Roundup
Issued by NWS

Home | Current Version | Previous Version | Graphics & Text | Print | Product List | Glossary On
Versions: 1 2 3 4 5 6 7 8 9 10 11 12 13 14 15 16 17 18 19 20 21 22 23 24 25 26 27 28 29 30 31 32 33 34 35 36 37 38 39 40 41 42 43 44 45 46 47 48 49 50
000
ASUS45 KCYS 060310
RWRWY

WYOMING REGIONAL WEATHER ROUNDUP
NATIONAL WEATHER SERVICE CHEYENNE WY
800 PM MST THU MAR 05 2015

NOTE:  "FAIR" INDICATES FEW OR NO CLOUDS BELOW 12,000 FEET
WITH NO SIGNIFICANT WEATHER AND/OR OBSTRUCTIONS TO VISIBILITY.

WYZ001-060400-
YELLOWSTONE NATIONAL PARK

CITY           SKY/WX    TMP DP  RH WIND       PRES   REMARKS
LK YELLOWSTONE   N/A     24   8  50 VRB3      30.32S
W YELLOWSTONE  NOT AVBL

$$
WYZ002>013-054>058-071-098>099-060400-
NORTHERN WYOMING

CITY           SKY/WX    TMP DP  RH WIND       PRES   REMARKS
JACKSON        CLEAR     30  12  47 SW12      30.32R WCI  21
CODY           CLOUDY    43  10  26 SW22G30   30.16F
GREYBULL       FAIR      32  17  54 E6        30.22R WCI  26
WORLAND        FAIR      30  19  63 S9        30.21R WCI  22
SHERIDAN       FAIR      31  20  63 S8        30.15R WCI  23
BUFFALO        MOCLDY    35  15  44 SW8       30.16S WCI  29
GILLETTE       FAIR      33  18  53 W9        30.14F WCI  25
HULETT         FAIR      32  19  59 SW8       30.14S WCI  25
NEWCASTLE      FAIR      30  16  55 N8        30.17S WCI  23

$$
WYZ014>020-022>026-101>103-060400-
CENTRAL WYOMING

CITY           SKY/WX    TMP DP  RH WIND       PRES   REMARKS
BIG PINEY      FAIR      27  14  58 N10       30.33R WCI  17
PINEDALE       FAIR      23  12  63 N8        30.33R WCI  14
DUBOIS         FAIR      25  10  54 NW14      30.26R WCI  13
LANDER         FAIR      19  13  77 SW5       30.22R WCI  12
RIVERTON       FAIR      18  10  71 W8        30.24R WCI   8
CASPER         FAIR      30  20  66 SW14      30.20S WCI  19
DOUGLAS        FAIR      21  15  78 NE3       30.21R

$$
WYZ021-027>030-104>119-060400-
SOUTHERN WYOMING

CITY           SKY/WX    TMP DP  RH WIND       PRES   REMARKS
EVANSTON       FAIR      27  13  55 SW8       30.39R WCI  19
FORT BRIDGER   FAIR      29  17  58 W15       30.39S WCI  18
ROCK SPRINGS   FAIR      30  17  58 W18G24    30.31R WCI  18
DIXON          FAIR      23  17  75 NE3       30.38S
RAWLINS        FAIR      29  16  58 W23G32    30.25F WCI  15
SARATOGA       FAIR      25  14  63 SE13      30.31R WCI  13
LARAMIE        FAIR      23  11  60 W7        30.23R WCI  15
CHEYENNE       FAIR      32  14  47 W10       30.22S WCI  24
TORRINGTON     FAIR      31  19  61 W5        30.21S WCI  26
PINE BLUFFS    FAIR      30  18  59 W5        30.24S WCI  25

$$



USA.gov is the U.S. government's official web portal to all federal, state and local government web resources and services.